BEIDOU-2 G6 (C02)

Last updated on Sat Aug 15 2026 00:03:26 GMT+0000 (Coordinated Universal Time)

1 38953U 12059A 26226.58459473 -.00000189 00000+0 00000+0 0 9995 2 38953 4.5651 72.8708 0007503 328.2537 216.2857 1.00268298 50493
UTC large
Height (km)
Speed (km/s)
/
Latitude / Longitude
Inclination (degrees)
Orbital Period (minutes)
Azimuth
Elevation
Range (km)
Doppler Factor

Next 0 passes for location: London (51.5072 / 0.1276)

No passes found over London.
BEIDOU-2 G6 (C02)